AirNav   Pilot Hours Calculator
 
 1713 users online  

CYQG Windsor Airport
Windsor, Ontario, Canada

GOING TO WINDSOR?


FAA INFORMATION EFFECTIVE 25 MARCH 2021

The information below comes from the U.S. Federal Aviation Administration (FAA). The FAA is not the official source of data for facilities located outside the United States, and THESE RECORDS ARE LIKELY NOT COMPLETE OR CORRECT.

Location

FAA Identifier: CYQG
Lat/Long: 42-16-33.1111N 082-57-27.5347W
42-16.551852N 082-57.458912W
42.2758642,-82.9576485
(estimated)
Elevation: 622 ft. / 190 m (estimated)
Variation: 07W ()
Time zone: UTC -4 (UTC -5 during Standard Time)
Zip code: 48243

Airport Operations

Airport use: Open to the public
Activation date: 03/2005
Control tower: no
ARTCC: CLEVELAND CENTER
FSS: LONDON FIC FLIGHT SERVICE STATION
Attendance: 
Segmented circle: no

Airport Communications

WX ASOS at DET (8 nm N): PHONE 313-371-9696
WX AWOS-3 at ONZ (14 nm SW): 119.675 (734-692-9686)
WX ASOS at DTW (18 nm W): PHONE 734-955-5015
WX AWOS-3 at VLL (19 nm NW): 119.475 (248-288-4649)

Nearby radio navigation aids

VOR radial/distance  VOR name  Freq  Var
DXOr084/18.6DETROIT VOR/DME113.4006W
CRLr061/26.1CARLETON VOR/DME115.7003W
SVMr109/29.3SALEM VORTAC114.3003W

 
NDB name  Hdg/Dist  Freq  Var  ID
GROSSE ILE047/13.641907WRYS .-. -.-- ...

Airport Services

Runway Information

Runway 7/25

Dimensions: 9000 x 200 ft. / 2743 x 61 m
Surface: asphalt
RUNWAY 7  RUNWAY 25
Latitude: 42-16.404018N42-17.086803N
Longitude: 082-58.209487W082-56.438652W
Elevation: 622.0 ft.608.0 ft.
Traffic pattern: leftleft
Runway heading: 070 magnetic, 063 true250 magnetic, 243 true
Displaced threshold: 901 ft.1143 ft.
Touchdown point: yes, no lightsyes, no lights

Runway 12/30

Dimensions: 5150 x 150 ft. / 1570 x 46 m
Surface: asphalt
RUNWAY 12  RUNWAY 30
Latitude: 42-16.396830N42-16.030400N
Longitude: 082-58.209295W082-57.179820W
Elevation: 622.0 ft.619.0 ft.
Traffic pattern: leftleft
Runway heading: 123 magnetic, 116 true303 magnetic, 296 true
Displaced threshold: 570 ft.321 ft.
Touchdown point: yes, no lightsyes, no lights

Airport Ownership and Management from official FAA records

Ownership: Publicly-owned

Additional Remarks

FOR CD CTC DETROIT APCH AT 800-499-8181.

Instrument Procedures

There are no published instrument procedures at CYQG.

Some nearby airports with instrument procedures:

KDET - Coleman A Young Municipal Airport (8 nm N)
KONZ - Grosse Ile Municipal Airport (14 nm SW)
KDTW - Detroit Metro Wayne County Airport (18 nm W)
KVLL - Oakland/Troy Airport (19 nm NW)
KMTC - Selfridge Air National Guard Base (21 nm N)
 
Loc | Ops | Rwys | IFR | FBO | Links
Com | Nav | Svcs | Stats | Notes
Aerial photo
No photo
 
Airport distance calculator
Flying to Windsor Airport? Find the distance to fly.

From to CYQG

Sunrise and sunset
Times for 21-Apr-2021
 Local
(UTC-4)
 Zulu
(UTC)
Morning civil twilight06:1310:13
Sunrise06:4310:43
Sunset20:1900:19
Evening civil twilight20:4800:48

Current date and time
Zulu (UTC)  21-Apr-2021 16:37:08
Local (UTC-4)  21-Apr-2021 12:37:08
 
METAR
CYQG 211600Z AUTO 34012G20KT 300V010 9SM SCT037 01/M05 A3005 RMK SLP184
KDET 
8nm N 
211553Z 30007G18KT 10SM SCT038 02/M07 A3005 RMK AO2 SLP182 T00221067
KONZ 
14nm SW 
211615Z AUTO 32013G18KT 10SM SCT039 02/M06 A3005 RMK AO2 T00181062
CXHA 
15nm S 
211600Z AUTO 31006KT 01/M06 RMK AO1 SOG 05 1009 SLP185 T00081059 50040
KDTW 
17nm W 
211553Z 34010KT 10SM SCT040 02/M07 A3006 RMK AO2 SLP185 T00171067
KVLL 
19nm NW 
211615Z AUTO 32007KT 10SM BKN040 BKN047 02/M06 A3006 RMK AO2 T00181058
TAF
CYQG 211139Z 2112/2212 33008KT P6SM SCT040 OVC100 TEMPO 2112/2114 BKN015 OVC040 FM211400 31012G22KT P6SM BKN030 FM212000 31012G22KT P6SM BKN050 BECMG 2123/2201 31008KT FM220400 30006KT P6SM FEW060 FM221100 28006KT P6SM BKN030 RMK FCST BASED ON AUTO OBS. NXT FCST BY 211800Z
KDET 
8nm N 
211505Z 2115/2212 32012G20KT P6SM SCT035 FM211700 32012G20KT P6SM BKN045 FM212100 31011KT P6SM BKN060 FM220100 29006KT P6SM FEW060
KDTW 
17nm W 
211505Z 2115/2218 32012G22KT P6SM SCT030 FM211700 32012G20KT P6SM BKN045 FM212100 31011KT P6SM BKN060 FM220100 29006KT P6SM FEW060
NOTAMs
Click for the latest NOTAMs
NOTAMs are issued by the DoD/FAA and will open in a separate window not controlled by AirNav.

 

 
 

Would you like to see your business listed on this page?

 If your business provides an interesting product or service to pilots, flight crews, aircraft, or users of the Windsor Airport, you should consider listing it here.  To start the listing process, click on the button below
 
Add a business
 

Other Pages about Windsor Airport

Update a link
 
Copyright © AirNav, LLC. All rights reserved. Privacy Policy  Contact